Date,TemperatureHighF,TemperatureAvgF,TemperatureLowF,DewpointHighF,DewpointAvgF,DewpointLowF,HumidityHigh,HumidityAvg,HumidityLow,PressureMaxIn,PressureMinIn,WindSpeedMaxMPH,WindSpeedAvgMPH,GustSpeedMaxMPH,PrecipitationSumIn
2014-1-1,69,64,60,65,60,53,92,86,72,30.23,30.04,3,0,5,0.02
2014-1-2,77,70,62,72,67,56,93,91,81,30.04,29.85,11,3,16,0.16
2014-1-3,62,52,45,57,38,31,82,62,46,30.26,29.99,5,2,9,0.00
2014-1-4,66,58,45,60,52,39,88,83,76,30.23,30.05,2,0,7,0.00
2014-1-5,80,68,59,69,63,56,93,84,66,30.06,29.95,6,1,9,0.00
2014-1-6,73,61,49,70,55,35,93,81,57,30.33,29.96,6,2,10,0.00
2014-1-7,50,44,39,36,26,20,62,48,31,30.42,30.27,3,1,7,0.00
2014-1-8,67,53,40,57,45,29,85,75,62,30.38,30.21,3,1,6,0.00
2014-1-9,73,66,58,69,63,53,93,89,81,30.26,30.14,2,0,5,0.02
2014-1-10,78,72,68,72,68,66,92,88,75,30.17,30.04,5,1,6,0.00
2014-1-11,76,72,68,72,69,65,93,91,86,30.08,29.95,11,4,17,0.29
2014-1-12,68,63,55,66,53,47,93,71,49,30.19,30.01,3,0,6,0.00
2014-1-13,77,65,52,69,60,47,91,85,74,30.15,29.97,8,3,11,0.00
2014-1-14,71,66,58,68,63,54,93,91,86,30.02,29.92,8,2,12,0.18
2014-1-15,64,59,53,54,52,49,90,77,59,30.08,29.95,2,0,4,0.00
2014-1-16,57,51,42,53,39,34,88,65,51,30.17,29.98,4,1,10,0.02
2014-1-17,64,52,40,56,44,36,89,75,45,30.22,30.12,4,0,5,0.00
2014-1-18,58,53,40,55,41,33,91,66,42,30.30,30.11,3,1,9,0.00
2014-1-19,66,52,38,57,47,35,92,83,69,30.24,30.14,5,1,9,0.00
2014-1-20,68,58,48,60,54,46,93,87,69,30.16,30.04,5,0,9,0.01
2014-1-21,71,63,56,64,59,53,93,87,76,30.05,29.86,9,3,12,0.05
2014-1-22,54,50,41,42,39,37,86,67,57,30.20,30.10,3,1,8,0.00
2014-1-23,63,50,38,46,38,31,91,67,32,30.35,30.17,3,0,9,0.00
2014-1-24,61,52,46,39,34,27,73,52,35,30.46,30.27,4,1,9,0.00
2014-1-25,66,55,47,55,47,39,89,75,54,30.28,30.05,4,1,11,0.00
2014-1-26,66,62,58,62,59,55,92,89,85,30.07,29.98,5,1,10,0.00
2014-1-27,71,66,61,68,63,59,93,92,88,30.03,29.94,5,1,11,0.33
2014-1-28,74,65,56,67,62,54,95,88,77,30.06,29.96,8,2,10,0.00
2014-1-29,64,56,48,61,53,45,93,90,77,30.19,29.97,4,1,10,0.19
2014-1-30,54,50,48,51,48,46,93,93,91,30.18,30.07,2,0,4,0.08
2014-1-31,63,58,52,61,56,50,94,93,93,30.10,30.00,2,0,4,0.57